DAL511 EGLL-KJFK

Flight info

Callsign DAL511
Flight time N/A
Altitude 38000
Route CPT L9 BIBPE DCT BUCGO DCT FELCA DCT NICXI DCT BAKUR DCT NEBIN/M085F380 NATD IBERG/N0485F380 N364A TUSKY DCT PLYMM PARCH4
Aircraft A359/H-SDE2E3GHIJ3J4J5LM1ORWXY/LB1D1

Departure

Time N/A
Airport London Heathrow Airport (EGLL)

Arrival

Time 2026-05-07 17:41
Airport John F. Kennedy International Airport (KJFK)
Time Latitude Longitude Altitude Speed Heading
2026-05-07 17:09 41.48641 -71.69461 25426 ft 332 kts 227°
2026-05-07 17:09 41.46869 -71.71427 24029 ft 328 kts 227°
2026-05-07 17:09 41.45138 -71.73347 22545 ft 324 kts 227°
2026-05-07 17:10 41.43410 -71.75267 20993 ft 322 kts 226°
2026-05-07 17:10 41.41692 -71.77173 19675 ft 319 kts 225°
2026-05-07 17:10 41.40008 -71.79034 18780 ft 307 kts 225°
2026-05-07 17:10 41.38412 -71.80789 18314 ft 291 kts 224°
2026-05-07 17:11 41.36881 -71.82474 18224 ft 277 kts 225°
2026-05-07 17:11 41.35457 -71.84035 18520 ft 253 kts 225°
2026-05-07 17:11 41.34575 -71.85003 18923 ft 248 kts 226°
2026-05-07 17:11 41.32845 -71.86910 20203 ft 235 kts 227°
2026-05-07 17:12 41.31633 -71.88233 21408 ft 214 kts 228°
2026-05-07 17:12 41.30571 -71.89376 22101 ft 187 kts 230°
2026-05-07 17:12 41.29552 -71.90518 22495 ft 199 kts 230°
2026-05-07 17:12 41.28440 -71.91791 22471 ft 225 kts 230°
2026-05-07 17:13 41.27632 -71.92709 22194 ft 235 kts 229°
2026-05-07 17:13 41.26347 -71.94130 21590 ft 242 kts 228°
2026-05-07 17:13 41.24746 -71.95876 20872 ft 247 kts 227°
2026-05-07 17:13 41.23843 -71.96862 20479 ft 251 kts 227°
2026-05-07 17:14 41.22041 -71.98834 19746 ft 257 kts 226°
2026-05-07 17:14 41.21105 -71.99858 19359 ft 257 kts 226°
2026-05-07 17:14 41.19744 -72.01339 18821 ft 248 kts 226°
2026-05-07 17:14 41.18415 -72.02793 18332 ft 255 kts 225°
2026-05-07 17:15 41.17031 -72.04312 17744 ft 261 kts 225°
2026-05-07 17:15 41.15622 -72.05853 17120 ft 261 kts 225°
2026-05-07 17:15 41.14226 -72.07378 16370 ft 258 kts 224°
2026-05-07 17:15 41.12844 -72.08892 15700 ft 263 kts 224°
2026-05-07 17:16 41.11484 -72.10581 15108 ft 265 kts 229°
2026-05-07 17:16 41.10349 -72.12447 14879 ft 256 kts 237°
2026-05-07 17:16 41.09457 -72.14442 14659 ft 247 kts 244°
2026-05-07 17:16 41.08801 -72.16521 14291 ft 244 kts 249°
2026-05-07 17:17 41.08268 -72.18657 13877 ft 243 kts 250°
2026-05-07 17:17 41.07753 -72.20783 13446 ft 243 kts 250°
2026-05-07 17:17 41.07232 -72.22907 13027 ft 242 kts 250°
2026-05-07 17:17 41.06710 -72.25032 12617 ft 242 kts 250°
2026-05-07 17:18 41.06188 -72.27145 12197 ft 241 kts 250°
2026-05-07 17:18 41.05666 -72.29252 12001 ft 239 kts 250°
2026-05-07 17:18 41.05146 -72.31355 11974 ft 241 kts 250°
2026-05-07 17:18 41.04628 -72.33443 11975 ft 242 kts 250°
2026-05-07 17:19 41.04097 -72.35576 11973 ft 242 kts 250°
2026-05-07 17:19 41.03565 -72.37711 11975 ft 242 kts 250°
2026-05-07 17:19 41.03038 -72.39825 11971 ft 242 kts 250°
2026-05-07 17:19 41.02516 -72.41916 11971 ft 242 kts 250°
2026-05-07 17:20 41.01987 -72.44036 11981 ft 242 kts 250°
2026-05-07 17:20 41.01458 -72.46150 11975 ft 242 kts 250°
2026-05-07 17:20 41.00928 -72.48261 11977 ft 242 kts 250°
2026-05-07 17:20 41.00398 -72.50379 11983 ft 242 kts 250°
2026-05-07 17:21 40.99867 -72.52499 11996 ft 242 kts 250°
2026-05-07 17:21 40.99338 -72.54617 11983 ft 242 kts 250°
2026-05-07 17:21 40.98806 -72.56733 11985 ft 242 kts 250°
2026-05-07 17:21 40.98274 -72.58850 11988 ft 243 kts 250°
2026-05-07 17:22 40.97764 -72.60874 11979 ft 243 kts 250°
2026-05-07 17:22 40.97432 -72.62180 11996 ft 244 kts 250°
2026-05-07 17:22 40.96896 -72.64306 11997 ft 244 kts 250°
2026-05-07 17:22 40.96360 -72.66432 11979 ft 244 kts 250°
2026-05-07 17:23 40.95826 -72.68555 11998 ft 244 kts 250°
2026-05-07 17:23 40.95290 -72.70678 11988 ft 243 kts 250°
2026-05-07 17:23 40.94754 -72.72803 11986 ft 243 kts 250°
2026-05-07 17:23 40.94213 -72.74925 11985 ft 243 kts 249°
2026-05-07 17:24 40.93576 -72.76992 11988 ft 243 kts 244°
2026-05-07 17:24 40.92739 -72.78933 11991 ft 243 kts 237°
2026-05-07 17:24 40.91694 -72.80703 11983 ft 245 kts 231°
2026-05-07 17:24 40.90471 -72.82266 11929 ft 245 kts 224°
2026-05-07 17:25 40.89117 -72.83640 11510 ft 246 kts 221°
2026-05-07 17:25 40.87715 -72.84966 11006 ft 249 kts 220°
2026-05-07 17:25 40.86299 -72.86308 10468 ft 253 kts 220°
2026-05-07 17:25 40.84862 -72.87677 9923 ft 257 kts 220°
2026-05-07 17:26 40.83403 -72.89072 9394 ft 261 kts 220°
2026-05-07 17:26 40.81930 -72.90478 8875 ft 264 kts 220°
2026-05-07 17:26 40.80430 -72.91914 8359 ft 267 kts 220°
2026-05-07 17:26 40.78927 -72.93351 7921 ft 267 kts 220°
2026-05-07 17:27 40.77428 -72.94782 7538 ft 265 kts 220°
2026-05-07 17:27 40.75938 -72.96196 7112 ft 263 kts 220°
2026-05-07 17:27 40.74457 -72.97612 6660 ft 264 kts 220°
2026-05-07 17:27 40.72987 -72.99019 6241 ft 264 kts 220°
2026-05-07 17:28 40.71519 -73.00469 5822 ft 262 kts 223°
2026-05-07 17:28 40.70235 -73.02121 5547 ft 256 kts 233°
2026-05-07 17:28 40.69244 -73.04017 5301 ft 247 kts 244°
2026-05-07 17:28 40.68569 -73.06059 5049 ft 241 kts 254°
2026-05-07 17:29 40.68189 -73.08214 4819 ft 240 kts 264°
2026-05-07 17:29 40.68021 -73.10402 4563 ft 240 kts 267°
2026-05-07 17:29 40.67886 -73.12596 4310 ft 241 kts 267°
2026-05-07 17:29 40.67683 -73.14788 4057 ft 243 kts 260°
2026-05-07 17:30 40.67070 -73.16877 3812 ft 244 kts 246°
2026-05-07 17:30 40.66341 -73.18899 3557 ft 245 kts 248°
2026-05-07 17:30 40.65603 -73.20906 3364 ft 246 kts 248°
2026-05-07 17:30 40.64856 -73.22930 3177 ft 247 kts 248°
2026-05-07 17:31 40.64112 -73.24953 3000 ft 241 kts 248°
2026-05-07 17:31 40.63428 -73.26797 2862 ft 240 kts 247°
2026-05-07 17:31 40.62706 -73.28742 2685 ft 232 kts 248°
2026-05-07 17:31 40.62013 -73.30651 2540 ft 231 kts 247°
2026-05-07 17:32 40.61323 -73.32528 2345 ft 225 kts 248°
2026-05-07 17:32 40.60651 -73.34352 2174 ft 218 kts 247°
2026-05-07 17:32 40.60435 -73.34939 2119 ft 217 kts 248°
2026-05-07 17:32 40.59874 -73.36465 2014 ft 215 kts 247°
2026-05-07 17:33 40.59230 -73.38218 1997 ft 216 kts 247°
2026-05-07 17:33 40.58568 -73.40013 1988 ft 212 kts 247°
2026-05-07 17:33 40.57946 -73.41687 2005 ft 197 kts 247°
2026-05-07 17:33 40.57351 -73.43286 2026 ft 192 kts 248°
2026-05-07 17:34 40.56766 -73.44872 2004 ft 194 kts 248°
2026-05-07 17:34 40.56174 -73.46482 1998 ft 196 kts 248°
2026-05-07 17:34 40.55578 -73.48093 1996 ft 196 kts 247°
2026-05-07 17:34 40.54994 -73.49666 1992 ft 189 kts 248°
2026-05-07 17:35 40.54422 -73.51205 1996 ft 186 kts 248°
2026-05-07 17:35 40.53861 -73.52728 1995 ft 185 kts 248°
2026-05-07 17:35 40.53429 -73.54318 1994 ft 183 kts 262°
2026-05-07 17:35 40.53451 -73.55954 1999 ft 179 kts 289°
2026-05-07 17:36 40.53939 -73.57446 1996 ft 177 kts 301°
2026-05-07 17:36 40.54536 -73.58840 1999 ft 174 kts 302°
2026-05-07 17:36 40.55121 -73.60201 1997 ft 168 kts 301°
2026-05-07 17:36 40.55705 -73.61523 1997 ft 166 kts 303°
2026-05-07 17:37 40.56300 -73.62828 1996 ft 166 kts 303°
2026-05-07 17:37 40.56896 -73.64137 1995 ft 166 kts 303°
2026-05-07 17:37 40.57481 -73.65431 1994 ft 166 kts 303°
2026-05-07 17:37 40.58055 -73.66706 1977 ft 156 kts 303°
2026-05-07 17:38 40.58589 -73.67892 1826 ft 148 kts 303°
2026-05-07 17:38 40.59113 -73.69045 1594 ft 143 kts 303°
2026-05-07 17:38 40.59601 -73.70124 1433 ft 135 kts 303°
2026-05-07 17:38 40.59919 -73.70826 1315 ft 135 kts 303°
2026-05-07 17:39 40.60070 -73.71159 1261 ft 135 kts 303°
2026-05-07 17:39 40.60545 -73.72205 1079 ft 134 kts 303°
2026-05-07 17:39 40.61020 -73.73256 899 ft 133 kts 303°
2026-05-07 17:40 40.61489 -73.74291 731 ft 132 kts 303°
2026-05-07 17:40 40.61957 -73.75324 554 ft 131 kts 303°
2026-05-07 17:40 40.62407 -73.76317 386 ft 131 kts 303°
2026-05-07 17:40 40.62868 -73.77337 213 ft 131 kts 303°
2026-05-07 17:41 40.63338 -73.78374 50 ft 129 kts 302°
2026-05-07 17:41 40.63760 -73.79307 25 ft 107 kts 301°
2026-05-07 17:41 40.64039 -73.79907 27 ft 56 kts 301°
2026-05-07 17:41 40.64159 -73.80121 27 ft 19 kts 321°
2026-05-07 17:42 40.64232 -73.80182 25 ft 8 kts 332°
2026-05-07 17:42 40.64292 -73.80168 23 ft 9 kts 53°
2026-05-07 17:42 40.64289 -73.80076 22 ft 11 kts 111°
2026-05-07 17:42 40.64240 -73.79984 23 ft 14 kts 139°
2026-05-07 17:43 40.64168 -73.79886 23 ft 16 kts 133°
2026-05-07 17:43 40.64095 -73.79753 23 ft 19 kts 121°
2026-05-07 17:43 40.64020 -73.79591 23 ft 22 kts 121°
2026-05-07 17:43 40.63935 -73.79405 23 ft 25 kts 120°
2026-05-07 17:44 40.63844 -73.79202 23 ft 27 kts 121°
2026-05-07 17:44 40.63744 -73.78980 23 ft 29 kts 120°
2026-05-07 17:44 40.63637 -73.78746 24 ft 31 kts 121°
2026-05-07 17:44 40.63550 -73.78551 24 ft 20 kts 121°
2026-05-07 17:45 40.63491 -73.78423 24 ft 14 kts 122°
2026-05-07 17:45 40.63487 -73.78332 23 ft 11 kts 53°
2026-05-07 17:45 40.63557 -73.78271 22 ft 13 kts 25°
2026-05-07 17:45 40.63644 -73.78261 22 ft 9 kts 354°
2026-05-07 17:46 40.63688 -73.78267 22 ft 11 kts 354°
2026-05-07 17:46 40.63763 -73.78277 22 ft 8 kts 354°
2026-05-07 17:46 40.63773 -73.78278 22 ft 0 kts 354°
2026-05-07 17:46 40.63786 -73.78280 22 ft 9 kts 353°
2026-05-07 17:47 40.63831 -73.78272 22 ft 6 kts 30°
2026-05-07 17:47 40.63851 -73.78217 22 ft 4 kts 77°
2026-05-07 17:47 40.63854 -73.78192 22 ft 0 kts 80°